Location: Broek
(53.2737°N, 5.9967°E)
Time: 21:56:40
(UTC+00:00)

ADEOS - Pass Details

Date: 10 October 2024
Orbit: 790 x 793 km, 98.9° (Epoch: 10 November)

Event Time Altitude Azimuth Distance (km) Brightness Sun altitude
Rises 17:43:29 0° 137° (SE) 3,284 6.4 -8.7°
Reaches altitude 10° 17:45:55 10° 130° (SE) 2,358 5.6 -9.1°
Maximum altitude 17:50:44 40° 63° (ENE) 1,158 4.0 -9.8°
Drops below altitude 10° 17:55:35 10° 355° (N) 2,370 6.1 -10.5°
Sets 17:58:02 0° 348° (NNW) 3,304 7.0 -10.9°
